Regional Weather Roundup
Issued by NWS Sterling, VA

Home | Current Version | Previous Version | Graphics & Text | Print | Product List | Glossary On
Versions: 1 2 3 4 5 6 7 8 9 10 11 12 13 14 15 16 17 18 19 20 21 22 23 24 25 26 27 28 29 30 31 32 33 34 35 36 37 38 39 40 41 42 43 44 45 46 47 48 49 50
000
ASUS41 KLWX 230610
RWRLWX

REGIONAL WEATHER ROUNDUP
NATIONAL WEATHER SERVICE BALTIMORE MD/WASHINGTON DC
200 AM EDT TUE SEP 23 2014

Note: "FAIR" indicates few or no clouds below 12,000 feet
with no significant weather and/or obstructions to visibility.
 TC=TEMPERATURE CELSIUS

 * =Non NWS site. Station does not report precipitation (e.g. rain,
    snow, etc.), thunder, or fog.

DCZ001-MDZ009-015-VAZ040>042-051-053>054-230700-
WASHINGTON METRO

CITY           SKY/WX    TMP DP  RH WIND       PRES   REMARKS
WASHINGTON NAT MOCLDY    58  42  55 NW10      30.25F
DULLES         PTCLDY    54  41  61 N9        30.25F
ANDREWS AFB    MOCLDY    54  43  65 N9        30.25R
QUANTICO       MOCLDY    57  43  59 N12       30.25R
COLLEGE PARK*  MOCLDY    52  45  76 N3        30.24F
LEESBURG*      PTCLDY    50  46  87 CALM      30.27S
MANASSAS*      PTCLDY    54  46  76 N9        30.25S
GAITHERSBURG*  CLEAR     46  41  81 CALM      30.29S

$$

MDZ006>007-011-014-230700-
BALTIMORE METRO

CITY           SKY/WX    TMP DP  RH WIND       PRES   REMARKS
BWI AIRPORT    MOCLDY    52  45  77 CALM      30.24R
MD SCIENCE CTR   N/A     59  41  51 MISG      30.24S
MARTIN STATE   MOCLDY    54  45  71 CALM      30.25S
ANNAPOLIS      MOCLDY    60  47  61 MISG      30.22F
FORT MEADE*    MOCLDY    46  45  93 NW3       30.26F

$$

MDZ012-015-019>023-230700-
MARYLAND EASTERN SHORE

CITY           SKY/WX    TMP DP  RH WIND       PRES   REMARKS
OCEAN CITY     CLEAR     56  45  66 NW6       30.21R
SALISBURY      PTCLDY    56  46  69 N7        30.21S
BAY BRIDGE AP*   N/A     61  41  48 N15       30.23S
CAMBRIDGE*     MOCLDY    61  43  51 N10G17    30.22S
EASTON*        MOCLDY    58  47  66 NE6       30.26S

$$

MDZ017>025-230700-
SOUTHERN MARYLAND

CITY           SKY/WX    TMP DP  RH WIND       PRES   REMARKS
PATUXENT RIVER PTCLDY    59  46  62 N7        30.22S
ST INIGOES     PTCLDY    59  44  57 VRB5      30.22R
LEONARDTOWN*   PTCLDY    55  43  62 CALM      30.24S

$$

MDZ003>005-230700-
NORTH CENTRAL MARYLAND

CITY           SKY/WX    TMP DP  RH WIND       PRES   REMARKS
FREDERICK*     CLEAR     52  45  76 CALM      30.29R
HAGERSTOWN APT CLEAR     50  39  66 CALM      30.26S
WESTMINSTER*   CLEAR     52  45  76 CALM      30.25R

$$

MDZ501>502-230700-
WESTERN MARYLAND

CITY           SKY/WX    TMP DP  RH WIND       PRES   REMARKS
OAKLAND*       CLEAR     41 N/A N/A NW3       30.27S
CUMBERLAND*    CLEAR     45  37  76 N3        30.32S

$$

VAZ025>031-230700-
SHENANDOAH VALLEY

CITY           SKY/WX    TMP DP  RH WIND       PRES   REMARKS
WINCHESTER*    CLEAR     46  41  81 CALM      30.27R
STAUNTON*      CLEAR     51  42  71 N6        30.28S

$$

WVZ021-048>050-054>055-230700-
EASTERN WEST VIRGINIA PANHANDLE

CITY           SKY/WX    TMP DP  RH WIND       PRES   REMARKS
MARTINSBURG    CLEAR     52  40  63 N7        30.27R
PETERSBURG*    CLEAR     42  40  93 CALM      30.30S

$$

VAZ036>039-050-230700-
CENTRAL FOOTHILLS

CITY           SKY/WX    TMP DP  RH WIND       PRES   REMARKS
CHARLOTTESVILL PTCLDY    53  44  71 CALM      30.25R
ORANGE*        MOCLDY    54  43  66 N3        30.26R

$$

VAZ055>057-230700-
NORTH AND CENTRAL PIEDMONT

CITY           SKY/WX    TMP DP  RH WIND       PRES   REMARKS
FREDERICKSBRG* MOCLDY    58  46  65 N6        30.24R
STAFFORD*      MOCLDY    55  45  69 CALM      30.29R

$$

NCZ024-NYZ072-PAZ021-071-VAZ022-071-230700-
OTHER REGIONAL OBSERVATIONS

CITY           SKY/WX    TMP DP  RH WIND       PRES   REMARKS
NEW YORK CITY  CLEAR     55  38  52 VRB5      30.22R
PHILADELPHIA   MOCLDY    55  40  56 NW5       30.24R
PITTSBURGH     CLEAR     42  40  92 CALM      30.29S
ROANOKE        MOCLDY    55  45  68 N12       30.26S
RICHMOND       MOCLDY    60  46  59 NE10      30.23R
RALEIGH        CLOUDY    64  54  69 N7        30.17S

$$

ANZ530>537-230700-
MARINE OBSERVATIONS

STATION/POSITION TIME  TEMP    WIND        PRES
                       AIR SEA DIR/SP/G
                 (UTC) (F)     (DEG/KT/KT) (MB)
THOMAS PT LIGHT  0600   60 72  350/ 14/ 16 1024.4R
BALT KEY BRIDGE  0600   60     330/ 12/ 13 1023.8F
COVE POINT       0600   62      10/ 16/ 23 1023.1R
LEWISETTA        0600   62 72   10/ 11/ 15 1023.2F
SOLOMONS ISLAND  0600      74                N/A
PINEY POINT      0600           10/  9/ 11   N/A

$$



USA.gov is the U.S. government's official web portal to all federal, state and local government web resources and services.